[[{"header":{"parameterUnit":"m.s-1","parameterCategory":1,"la1":30.2991,"la2":30.254,"lo1":-89.0895,"lo2":-89.0444,"dy":0.0017,"dx":0.0017,"nx":28,"ny":28,"refTime":"2026-01-03T09:00:00:Z","depth":0,"parameterNumber":2,"parameterNumberName":"U-component_of_WINDS"},"data":[0,0,0,0,0,0,0,0,0,0,0,0,0,0,0,0,0,0,0,0,0,0,0,0,0,0,0,0,0,0,0,0,0,0,0,0,0,0,0,0,0,0,0,0,0,0,0,0,0,0,0,0,0,0,0,0,0,0,2.1681,2.1682,0,2.1758,2.1759,2.176,2.1695,2.1692,2.1689,2.1687,2.177,2.1774,2.1779,0,0,0,0,0,0,0,0,0,0,0,0,0,2.1483,2.1487,2.1681,2.1682,2.1683,2.1758,2.1759,2.176,2.1695,2.1692,2.1689,2.1686,2.1768,2.1774,2.1779,0,0,0,0,0,0,0,0,0,0,0,0,0,2.1565,2.1488,2.1681,2.166,2.1659,2.1758,2.1759,2.176,2.1696,2.1692,2.1688,2.1684,2.1766,2.1773,2.178,2.1905,0,0,2.1802,2.1805,0,0,0,0,0,0,0,0,2.1561,2.1573,2.1662,2.1662,2.166,2.1713,2.1719,2.1809,2.1697,2.1682,2.1687,2.1682,2.1754,2.1762,2.1786,2.1909,2.1913,2.1803,2.1807,2.181,2.1812,0,0,0,0,0,0,0,2.1555,2.1569,2.1712,2.1663,2.1662,2.1648,2.1655,2.1736,2.174,2.1683,2.1678,2.1688,2.1753,2.1779,2.1787,2.1914,2.1802,2.1809,2.1813,2.1816,2.2146,2.215,0,0,0,0,0,0,2.1551,2.1565,2.1709,2.1714,2.1599,2.1655,2.1663,2.17,2.1739,2.1741,2.1692,2.1685,2.1769,2.1779,2.179,2.194,2.181,2.1817,2.1821,2.2141,2.2147,2.2152,0,0,0,0,0,0,2.1547,2.1565,2.1706,2.1638,2.1655,2.1662,2.1705,2.1704,2.1729,2.1745,2.1746,2.1717,2.1766,2.178,2.1877,2.1942,2.182,2.1826,2.2136,2.2143,2.2149,2.2242,0,0,0,0,0,0,2.1542,2.1563,2.161,2.164,2.1659,2.1792,2.1709,2.1708,2.1741,2.1733,2.177,2.1772,2.1764,2.1867,2.1884,2.195,2.1832,2.213,2.2139,2.2147,2.2233,2.2251,2.2266,0,0,0,0,0,2.1535,2.1634,2.1613,2.1631,2.1717,2.1795,2.1806,2.1794,2.1747,2.1795,2.1805,2.1771,2.1932,2.1877,2.1896,2.1965,2.2126,2.2137,2.2147,2.2225,2.2247,2.2265,0,0,0,0,0,0,2.1613,2.1637,2.1614,2.1726,2.1759,2.1784,2.1844,2.1817,2.1866,2.1857,2.184,2.1849,2.1952,2.1968,2.1907,2.2089,2.2022,2.2036,2.2075,2.2096,2.2112,2.2107,2.1838,0,0,0,0,0,2.1643,2.1703,2.1721,2.1818,2.1835,2.1837,2.1871,2.1858,2.1892,2.1907,2.1924,2.196,2.2018,2.2058,2.2112,2.2234,2.2242,2.2291,2.2307,2.2321,2.2334,2.2401,2.2423,2.2185,2.2185,2.2185,0,0,2.1706,2.1727,2.1766,2.1834,2.1858,2.1923,2.1849,2.192,2.1968,2.1918,2.2011,2.2025,2.2064,2.2174,2.2224,2.2191,2.2401,2.2334,2.2344,2.235,2.2414,2.2436,2.2457,2.2192,2.2191,2.219,0,0,2.1855,2.1875,2.1959,2.1984,2.2021,2.2021,2.2042,2.2071,2.2078,2.2171,2.2135,2.2192,2.2293,2.2323,2.2351,2.251,2.2481,2.2529,2.2616,2.2682,2.27,2.2717,2.2776,2.2797,2.2541,2.2542,2.2542,0,2.1929,2.2023,2.2005,2.2079,2.211,2.2066,2.2151,2.2177,2.2231,2.2255,2.2216,2.2343,2.2366,2.2483,2.2522,2.2546,2.257,2.2525,2.2699,2.2715,2.2731,2.2786,2.2808,2.2547,2.2547,2.2546,2.2545,0,2.2113,2.2179,2.2242,2.2294,2.2332,2.2412,2.2407,2.2449,2.2433,2.2438,2.2534,2.2559,2.2619,2.2645,2.2631,2.2762,2.274,2.2701,2.2633,2.2759,2.2812,2.2833,2.2555,2.2553,2.2552,2.255,0,0,2.2314,2.2355,2.2379,2.2402,2.244,2.2491,2.2568,2.2625,2.2662,2.2701,2.2767,2.2853,2.2817,2.2849,2.2837,2.2894,2.3021,2.2848,2.2849,2.2881,2.3169,2.32,2.3225,2.3001,2.3005,2.3008,2.3166,0,2.2466,2.2599,2.2586,2.2713,2.2775,2.2733,2.2801,2.2832,2.2839,2.2893,2.29,2.2963,2.2909,2.2928,2.2983,2.2994,2.3079,2.2982,2.3064,2.3068,2.3058,2.3252,2.3285,2.3433,2.3186,2.319,2.3192,0,2.266,2.2704,2.2838,2.2867,2.2892,2.2953,2.3005,2.3056,2.3092,2.3092,2.3128,2.3107,2.3186,2.3115,2.3226,2.316,2.3193,2.3204,2.3209,2.3218,2.3139,2.3268,2.3479,2.3502,2.3224,2.3221,2.3219,0,2.2796,2.2889,2.2981,2.3002,2.3038,2.3082,2.3099,2.313,2.3165,2.3211,2.3234,2.3289,2.3319,2.3363,2.3357,2.3306,2.347,2.3398,2.3475,2.3476,2.3514,2.3512,2.3735,2.3531,2.3531,2.353,2.353,0,2.2967,2.3051,2.3043,2.31,2.3193,2.3177,2.327,2.3282,2.331,2.337,2.3337,2.3394,2.3382,2.344,2.3436,2.3529,2.3542,2.3547,2.3545,2.3551,2.3551,2.3574,2.3564,2.3536,2.3535,2.3534,2.3533,0,2.3136,2.3133,2.3231,2.3256,2.3265,2.3333,2.3355,2.341,2.3413,2.3489,2.3506,2.3512,2.3578,2.3576,2.3651,2.3648,2.3763,2.3749,2.3752,2.3749,2.3827,2.382,2.4075,2.4108,2.3881,2.3883,2.3884,0,2.3246,2.331,2.3342,2.3379,2.3398,2.3459,2.3494,2.3481,2.352,2.3565,2.3615,2.3677,2.3726,2.3834,2.3846,2.3903,2.3891,2.3976,2.39,2.3904,2.3895,2.3892,2.3899,2.3992,2.3995,2.3997,2.3998,0,2.3444,2.3439,2.3491,2.3544,2.3587,2.3628,2.3665,2.3698,2.3689,2.3734,2.38,2.3839,2.3915,2.3978,2.4033,2.4052,2.4025,2.4022,2.4043,2.4051,2.4051,2.4054,2.3795,2.4017,2.4015,2.4014,2.4013,2.4012,2.3588,2.3643,2.3674,2.3734,2.376,2.3796,2.3848,2.3858,2.3913,2.3973,2.3962,2.4036,2.4071,2.4142,2.4166,2.4225,2.4195,2.4225,2.4233,2.4242,2.4251,2.4039,2.4235,2.4234,2.4234,2.4233,2.4233,0,2.3785,2.3803,2.3858,2.3911,2.3958,2.3926,2.3965,2.4008,2.4074,2.4107,2.4156,2.4233,2.4294,2.431,2.437,2.4414,2.4403,2.443,2.4428,2.4433,2.4273,2.425,2.4438,2.4438,2.4438,2.4438,2.4438,2.4438,2.3893,2.3985,2.3984,2.409,2.4107,2.4179,2.4205,2.4238,2.4265,2.4352,2.4402,2.4411,2.4439,2.4499,2.4555,2.4558,2.4582,2.4615,2.4614,2.4465,2.4444,2.4425,2.4403,2.462,2.462,2.4769,2.477,2.4771]},{"header":{"parameterUnit":"m.s-1","parameterCategory":1,"la1":30.2991,"la2":30.254,"lo1":-89.0895,"lo2":-89.0444,"dy":0.0017,"dx":0.0017,"nx":28,"ny":28,"refTime":"2026-01-03T09:00:00:Z","depth":0,"parameterNumber":3,"parameterNumberName":"V-component_of_WINDS"},"data":[0,0,0,0,0,0,0,0,0,0,0,0,0,0,0,0,0,0,0,0,0,0,0,0,0,0,0,0,0,0,0,0,0,0,0,0,0,0,0,0,0,0,0,0,0,0,0,0,0,0,0,0,0,0,0,0,0,0,-2.3955,-2.3954,0,-2.3802,-2.38,-2.3798,-2.3884,-2.3889,-2.3893,-2.3897,-2.3723,-2.3714,-2.3706,0,0,0,0,0,0,0,0,0,0,0,0,0,-2.4309,-2.4302,-2.3955,-2.3953,-2.3952,-2.3802,-2.38,-2.3798,-2.3883,-2.3889,-2.3894,-2.3899,-2.3726,-2.3715,-2.3705,0,0,0,0,0,0,0,0,0,0,0,0,0,-2.4155,-2.43,-2.3956,-2.3977,-2.3977,-2.3803,-2.38,-2.3797,-2.3882,-2.3889,-2.3895,-2.3901,-2.3729,-2.3716,-2.3704,-2.3494,0,0,-2.3664,-2.3658,0,0,0,0,0,0,0,0,-2.4164,-2.4142,-2.3975,-2.3975,-2.3975,-2.3869,-2.3861,-2.3695,-2.3881,-2.3918,-2.3897,-2.3904,-2.3765,-2.375,-2.3706,-2.3486,-2.3479,-2.3663,-2.3655,-2.3649,-2.3646,0,0,0,0,0,0,0,-2.4174,-2.4149,-2.3894,-2.3973,-2.3973,-2.3989,-2.3975,-2.383,-2.3806,-2.3915,-2.3921,-2.3903,-2.3766,-2.3718,-2.3703,-2.3476,-2.3663,-2.3652,-2.3644,-2.3639,-2.3079,-2.3073,0,0,0,0,0,0,-2.4186,-2.4157,-2.3899,-2.389,-2.4088,-2.3978,-2.3961,-2.3896,-2.3809,-2.3802,-2.3897,-2.3907,-2.3737,-2.3718,-2.3697,-2.3448,-2.3649,-2.3637,-2.363,-2.3086,-2.3078,-2.307,0,0,0,0,0,0,-2.4193,-2.4162,-2.3905,-2.4025,-2.3994,-2.3965,-2.3891,-2.389,-2.3843,-2.3795,-2.379,-2.3854,-2.3742,-2.3715,-2.3546,-2.3443,-2.3631,-2.362,-2.3095,-2.3084,-2.3074,-2.2947,0,0,0,0,0,0,-2.4203,-2.4164,-2.4087,-2.4023,-2.3987,-2.376,-2.3885,-2.3882,-2.3822,-2.3833,-2.3753,-2.3746,-2.3745,-2.3565,-2.3533,-2.3429,-2.361,-2.3104,-2.309,-2.3077,-2.296,-2.2934,-2.2911,0,0,0,0,0,-2.4215,-2.4053,-2.4083,-2.4051,-2.3891,-2.3754,-2.3733,-2.374,-2.3813,-2.3734,-2.3704,-2.3748,-2.346,-2.3547,-2.3512,-2.3402,-2.311,-2.3094,-2.3078,-2.2971,-2.2939,-2.2911,0,0,0,0,0,0,-2.4099,-2.4045,-2.4077,-2.3891,-2.3827,-2.3769,-2.3669,-2.3705,-2.3615,-2.3629,-2.3636,-2.3617,-2.3442,-2.3405,-2.3503,-2.3196,-2.3296,-2.3272,-2.3227,-2.3195,-2.3171,-2.3182,-2.3599,0,0,0,0,0,-2.4053,-2.3951,-2.3907,-2.3747,-2.3714,-2.3697,-2.3637,-2.365,-2.3582,-2.3553,-2.3511,-2.3439,-2.3333,-2.3262,-2.3161,-2.2956,-2.2939,-2.2863,-2.2838,-2.2818,-2.2797,-2.2687,-2.2653,-2.3018,-2.3018,-2.3018,0,0,-2.3953,-2.3912,-2.3846,-2.3723,-2.3675,-2.3566,-2.3673,-2.3552,-2.347,-2.3533,-2.3373,-2.3339,-2.3259,-2.3073,-2.2988,-2.3036,-2.2693,-2.2798,-2.2782,-2.2772,-2.2667,-2.2633,-2.2602,-2.3007,-2.3009,-2.3011,0,0,-2.3718,-2.3677,-2.354,-2.3492,-2.3421,-2.3412,-2.3379,-2.3316,-2.3299,-2.314,-2.3185,-2.3085,-2.2901,-2.2844,-2.279,-2.2538,-2.2575,-2.2504,-2.2373,-2.2266,-2.2237,-2.2212,-2.2122,-2.209,-2.2484,-2.2483,-2.2483,0,-2.3603,-2.3445,-2.3463,-2.3341,-2.3285,-2.3344,-2.3204,-2.3154,-2.3051,-2.3009,-2.3067,-2.284,-2.279,-2.2591,-2.2531,-2.2485,-2.2446,-2.2513,-2.2241,-2.2216,-2.2192,-2.2106,-2.2073,-2.2475,-2.2476,-2.2477,-2.2478,0,-2.3307,-2.3197,-2.3094,-2.3001,-2.2933,-2.2801,-2.2797,-2.2725,-2.2744,-2.2727,-2.2564,-2.2508,-2.2398,-2.2352,-2.2365,-2.2154,-2.2187,-2.2242,-2.2342,-2.2149,-2.2069,-2.2036,-2.2464,-2.2467,-2.2469,-2.2471,0,0,-2.299,-2.2914,-2.2876,-2.2836,-2.2764,-2.2676,-2.2547,-2.2446,-2.2385,-2.2312,-2.2203,-2.2048,-2.2101,-2.204,-2.2048,-2.1954,-2.1759,-2.2021,-2.2019,-2.1974,-2.1524,-2.1482,-2.1444,-2.1784,-2.1778,-2.1773,-2.1531,0,-2.2751,-2.2532,-2.2547,-2.2338,-2.2237,-2.2293,-2.2181,-2.2122,-2.2104,-2.2011,-2.1989,-2.188,-2.1957,-2.1922,-2.1832,-2.1802,-2.1668,-2.182,-2.1679,-2.1674,-2.1697,-2.1402,-2.1357,-2.1131,-2.1499,-2.1494,-2.149,0,-2.2441,-2.2367,-2.215,-2.2098,-2.2055,-2.1954,-2.1864,-2.1776,-2.1711,-2.1704,-2.1639,-2.1664,-2.153,-2.1636,-2.145,-2.1553,-2.1497,-2.1474,-2.1465,-2.1451,-2.1569,-2.138,-2.1059,-2.1025,-2.144,-2.1444,-2.1448,0,-2.2233,-2.2077,-2.1929,-2.1892,-2.1826,-2.1754,-2.1722,-2.1664,-2.1603,-2.1523,-2.1483,-2.1386,-2.1332,-2.1255,-2.1251,-2.1329,-2.1064,-2.1169,-2.1052,-2.1052,-2.0992,-2.0995,-2.0657,-2.0956,-2.0957,-2.0957,-2.0958,0,-2.1964,-2.1829,-2.1835,-2.1743,-2.1594,-2.1611,-2.1461,-2.1436,-2.1384,-2.1286,-2.1327,-2.1232,-2.1235,-2.1137,-2.1133,-2.0981,-2.0955,-2.0944,-2.0944,-2.094,-2.0942,-2.0902,-2.0917,-2.0948,-2.095,-2.0952,-2.0954,0,-2.1705,-2.1704,-2.1546,-2.1499,-2.1484,-2.1376,-2.1334,-2.1245,-2.1233,-2.1108,-2.1079,-2.1057,-2.0946,-2.0936,-2.0804,-2.0802,-2.0618,-2.0635,-2.0642,-2.0644,-2.0528,-2.0539,-2.0152,-2.0102,-2.0434,-2.0431,-2.0428,0,-2.1533,-2.1432,-2.1377,-2.1318,-2.1284,-2.1186,-2.1127,-2.1139,-2.1074,-2.0995,-2.0915,-2.0809,-2.0725,-2.0544,-2.0513,-2.0413,-2.0428,-2.03,-2.0413,-2.0413,-2.0426,-2.0432,-2.0422,-2.0277,-2.0273,-2.027,-2.0268,0,-2.1228,-2.1234,-2.115,-2.1066,-2.0996,-2.0928,-2.0865,-2.0812,-2.0817,-2.0742,-2.0633,-2.0568,-2.0438,-2.0332,-2.0235,-2.0197,-2.0231,-2.0233,-2.0201,-2.0194,-2.0203,-2.0197,-2.0581,-2.0241,-2.0244,-2.0246,-2.0247,-2.0248,-2.1008,-2.0922,-2.0871,-2.0776,-2.0732,-2.0673,-2.0589,-2.0569,-2.048,-2.038,-2.0391,-2.0269,-2.0207,-2.0082,-2.0038,-1.994,-1.9982,-1.9935,-1.9923,-1.9911,-1.99,-2.022,-1.9922,-1.9923,-1.9923,-1.9924,-1.9924,0,-2.0705,-2.0677,-2.059,-2.0505,-2.043,-2.0477,-2.041,-2.0343,-2.0237,-2.018,-2.0099,-1.9973,-1.9871,-1.9835,-1.9735,-1.9663,-1.9677,-1.9636,-1.9641,-1.9632,-1.9867,-1.9905,-1.9628,-1.9628,-1.9628,-1.9628,-1.9628,-1.9628,-2.054,-2.0398,-2.0398,-2.0233,-2.0205,-2.0091,-2.0049,-1.9994,-1.9949,-1.9809,-1.9728,-1.9707,-1.9657,-1.9555,-1.9463,-1.9454,-1.9415,-1.9368,-1.9366,-1.9585,-1.9615,-1.9644,-1.968,-1.9359,-1.9359,-1.9139,-1.9137,-1.9136]}]]